(°C)
21°
20°
19°
17°
16°
14°
13°
(°C)
17°
16°
14°
13°
12°
12°
11°
B
B
BGB
BGB
BGB
B
B
(km/saat)
22-40
22-37
21-36
19-33
16-29
11-26
6-20
(mm)
0
0
0
0
0
0
0
(%)
8
8
9
3
3
3
3

Güneşin açısı

/ 44.2°
sun-icon
UV 5
06:22
20:42
Artan Yarımay (19°)
07:20
22:27

Yanya (LGIO) için METAR

Zaman Koşullar Sıcaklık/
Çiy noktası
Rüzgar Görünürlük Hava Bulutlar Basınç Değiştir Ham
21°C / 8°C 290º variable 260º to 350º 11kt - 1011 - LGIO 131320Z AUTO 29011KT 260V350 //// // ////// 21/08 Q1011 RE//
22°C / 5°C 310º variable 230º to 330º 10kt - 1011 - LGIO 131250Z AUTO 31010KT 230V330 //// // ////// 22/05 Q1011 RE//
22°C / 4°C 230º variable 200º to 340º 8kt - 1011 - LGIO 131220Z AUTO 23008KT 200V340 //// // ////// 22/04 Q1011 RE//
VFR 22°C / 5°C 300º variable 230º to 340º 9kt >10km - Scattered Clouds 3500ft 1011 - LGIO 131150Z 30009KT 230V340 9999 SCT035 SCT080 22/05 Q1011
VFR 22°C / 4°C 290º 9kt >10km - Scattered Clouds 3500ft 1011 - LGIO 131120Z 29009KT 9999 SCT035 22/04 Q1011
VFR 21°C / 7°C 270º variable 250º to 340º 11kt >10km - Scattered Clouds 3500ft 1011 - LGIO 131050Z 27011KT 250V340 9999 SCT035 21/07 Q1011
VFR 22°C / 8°C 280º variable 240º to 350º 8kt >10km - Scattered Clouds 3500ft 1011 - LGIO 131020Z 28008KT 240V350 9999 SCT035 22/08 Q1011
VFR 21°C / 7°C 310º variable 230º to 330º 10kt >10km - Scattered Clouds 3500ft 1011 - LGIO 130950Z 31010KT 230V330 9999 SCT035 21/07 Q1011
VFR 20°C / 7°C 260º variable 200º to 340º 7kt >10km - Scattered Clouds 3500ft 1011 - LGIO 130920Z 26007KT 200V340 9999 SCT035 20/07 Q1011
VFR 21°C / 8°C 300º variable 240º to 340º 9kt >10km - Scattered Clouds 3500ft 1011 - LGIO 130850Z 30009KT 240V340 9999 SCT035 21/08 Q1011
VFR 20°C / 8°C variable 4kt >10km - Scattered Clouds 3500ft 1011 - LGIO 130820Z VRB04KT 9999 SCT035 20/08 Q1011
VFR 20°C / 10°C 310º 3kt >10km - Scattered Clouds 3500ft 1011 - LGIO 130750Z 31003KT 9999 SCT035 20/10 Q1011
VFR 18°C / 11°C 90º 3kt >10km - Few Clouds 2500ft 1011 - LGIO 130720Z 09003KT 9999 FEW025 18/11 Q1011
VFR 17°C / 11°C 140º variable 080º to 160º 4kt >10km - Few Clouds 2500ft 1011 - LGIO 130650Z 14004KT 080V160 9999 FEW025 17/11 Q1011
VFR 17°C / 12°C 60º variable 030º to 090º 4kt >10km - Few Clouds 1500ft 1011 - LGIO 130620Z 06004KT 030V090 9999 FEW015 17/12 Q1011
16°C / 12°C variable 2kt - 1011 - LGIO 130550Z AUTO VRB02KT //// // ////// 16/12 Q1011 RE//
15°C / 11°C variable 0kt - 1011 - LGIO 130520Z AUTO 00000KT //// // ////// 15/11 Q1011 RE//
11°C / 10°C variable 0kt - 1011 - LGIO 130450Z AUTO 00000KT //// // ////// 11/10 Q1011 RE//
10°C / 9°C variable 0kt - 1011 - LGIO 130420Z AUTO 00000KT //// // ////// 10/09 Q1011 RE//
10°C / 9°C variable 1kt - 1011 - LGIO 130350Z AUTO VRB01KT //// // ////// 10/09 Q1011 RE//
10°C / 9°C variable 0kt - 1011 - LGIO 130320Z AUTO 00000KT //// // ////// 10/09 Q1011 RE//
10°C / 10°C variable 1kt - 1011 - LGIO 130250Z AUTO VRB01KT //// // ////// 10/10 Q1011 RE//
11°C / 10°C variable 1kt - 1011 - LGIO 130220Z AUTO VRB01KT //// // ////// 11/10 Q1011 RE//
11°C / 10°C variable 2kt - 1011 - LGIO 130150Z AUTO VRB02KT //// // ////// 11/10 Q1011 RE//

21°C / 8°C

[Daha fazla]
Rüzgar 290º variable 260º to 350º 11kt
Görünürlük
Hava -
Bulutlar
Basınç 1011
Değiştir -
Ham LGIO 131320Z AUTO 29011KT 260V350 //// // ////// 21/08 Q1011 RE//

22°C / 5°C

[Daha fazla]
Rüzgar 310º variable 230º to 330º 10kt
Görünürlük
Hava -
Bulutlar
Basınç 1011
Değiştir -
Ham LGIO 131250Z AUTO 31010KT 230V330 //// // ////// 22/05 Q1011 RE//

22°C / 4°C

[Daha fazla]
Rüzgar 230º variable 200º to 340º 8kt
Görünürlük
Hava -
Bulutlar
Basınç 1011
Değiştir -
Ham LGIO 131220Z AUTO 23008KT 200V340 //// // ////// 22/04 Q1011 RE//

VFR

22°C / 5°C

[Daha fazla]
Rüzgar 300º variable 230º to 340º 9kt
Görünürlük >10km
Hava -
Bulutlar Scattered Clouds 3500ft
Basınç 1011
Değiştir -
Ham LGIO 131150Z 30009KT 230V340 9999 SCT035 SCT080 22/05 Q1011

VFR

22°C / 4°C

[Daha fazla]
Rüzgar 290º 9kt
Görünürlük >10km
Hava -
Bulutlar Scattered Clouds 3500ft
Basınç 1011
Değiştir -
Ham LGIO 131120Z 29009KT 9999 SCT035 22/04 Q1011

VFR

21°C / 7°C

[Daha fazla]
Rüzgar 270º variable 250º to 340º 11kt
Görünürlük >10km
Hava -
Bulutlar Scattered Clouds 3500ft
Basınç 1011
Değiştir -
Ham LGIO 131050Z 27011KT 250V340 9999 SCT035 21/07 Q1011

VFR

22°C / 8°C

[Daha fazla]
Rüzgar 280º variable 240º to 350º 8kt
Görünürlük >10km
Hava -
Bulutlar Scattered Clouds 3500ft
Basınç 1011
Değiştir -
Ham LGIO 131020Z 28008KT 240V350 9999 SCT035 22/08 Q1011

VFR

21°C / 7°C

[Daha fazla]
Rüzgar 310º variable 230º to 330º 10kt
Görünürlük >10km
Hava -
Bulutlar Scattered Clouds 3500ft
Basınç 1011
Değiştir -
Ham LGIO 130950Z 31010KT 230V330 9999 SCT035 21/07 Q1011

VFR

20°C / 7°C

[Daha fazla]
Rüzgar 260º variable 200º to 340º 7kt
Görünürlük >10km
Hava -
Bulutlar Scattered Clouds 3500ft
Basınç 1011
Değiştir -
Ham LGIO 130920Z 26007KT 200V340 9999 SCT035 20/07 Q1011

VFR

21°C / 8°C

[Daha fazla]
Rüzgar 300º variable 240º to 340º 9kt
Görünürlük >10km
Hava -
Bulutlar Scattered Clouds 3500ft
Basınç 1011
Değiştir -
Ham LGIO 130850Z 30009KT 240V340 9999 SCT035 21/08 Q1011

VFR

20°C / 8°C

[Daha fazla]
Rüzgar variable 4kt
Görünürlük >10km
Hava -
Bulutlar Scattered Clouds 3500ft
Basınç 1011
Değiştir -
Ham LGIO 130820Z VRB04KT 9999 SCT035 20/08 Q1011

VFR

20°C / 10°C

[Daha fazla]
Rüzgar 310º 3kt
Görünürlük >10km
Hava -
Bulutlar Scattered Clouds 3500ft
Basınç 1011
Değiştir -
Ham LGIO 130750Z 31003KT 9999 SCT035 20/10 Q1011

VFR

18°C / 11°C

[Daha fazla]
Rüzgar 90º 3kt
Görünürlük >10km
Hava -
Bulutlar Few Clouds 2500ft
Basınç 1011
Değiştir -
Ham LGIO 130720Z 09003KT 9999 FEW025 18/11 Q1011

VFR

17°C / 11°C

[Daha fazla]
Rüzgar 140º variable 080º to 160º 4kt
Görünürlük >10km
Hava -
Bulutlar Few Clouds 2500ft
Basınç 1011
Değiştir -
Ham LGIO 130650Z 14004KT 080V160 9999 FEW025 17/11 Q1011

VFR

17°C / 12°C

[Daha fazla]
Rüzgar 60º variable 030º to 090º 4kt
Görünürlük >10km
Hava -
Bulutlar Few Clouds 1500ft
Basınç 1011
Değiştir -
Ham LGIO 130620Z 06004KT 030V090 9999 FEW015 17/12 Q1011

16°C / 12°C

[Daha fazla]
Rüzgar variable 2kt
Görünürlük
Hava -
Bulutlar
Basınç 1011
Değiştir -
Ham LGIO 130550Z AUTO VRB02KT //// // ////// 16/12 Q1011 RE//

15°C / 11°C

[Daha fazla]
Rüzgar variable 0kt
Görünürlük
Hava -
Bulutlar
Basınç 1011
Değiştir -
Ham LGIO 130520Z AUTO 00000KT //// // ////// 15/11 Q1011 RE//

11°C / 10°C

[Daha fazla]
Rüzgar variable 0kt
Görünürlük
Hava -
Bulutlar
Basınç 1011
Değiştir -
Ham LGIO 130450Z AUTO 00000KT //// // ////// 11/10 Q1011 RE//

10°C / 9°C

[Daha fazla]
Rüzgar variable 0kt
Görünürlük
Hava -
Bulutlar
Basınç 1011
Değiştir -
Ham LGIO 130420Z AUTO 00000KT //// // ////// 10/09 Q1011 RE//

10°C / 9°C

[Daha fazla]
Rüzgar variable 1kt
Görünürlük
Hava -
Bulutlar
Basınç 1011
Değiştir -
Ham LGIO 130350Z AUTO VRB01KT //// // ////// 10/09 Q1011 RE//

10°C / 9°C

[Daha fazla]
Rüzgar variable 0kt
Görünürlük
Hava -
Bulutlar
Basınç 1011
Değiştir -
Ham LGIO 130320Z AUTO 00000KT //// // ////// 10/09 Q1011 RE//

10°C / 10°C

[Daha fazla]
Rüzgar variable 1kt
Görünürlük
Hava -
Bulutlar
Basınç 1011
Değiştir -
Ham LGIO 130250Z AUTO VRB01KT //// // ////// 10/10 Q1011 RE//

11°C / 10°C

[Daha fazla]
Rüzgar variable 1kt
Görünürlük
Hava -
Bulutlar
Basınç 1011
Değiştir -
Ham LGIO 130220Z AUTO VRB01KT //// // ////// 11/10 Q1011 RE//

11°C / 10°C

[Daha fazla]
Rüzgar variable 2kt
Görünürlük
Hava -
Bulutlar
Basınç 1011
Değiştir -
Ham LGIO 130150Z AUTO VRB02KT //// // ////// 11/10 Q1011 RE//

Yanya (LGIO) için TAF

From till


From till Wind 250º 10kt. Visibility 10km or more. Scattered Clouds 3000ft. Scattered Clouds 8000ft.
With 30% probability, Temporarly from till Visibility 6000m. Showers Rain . Few Clouds 2000ft. Scattered Clouds 3000ft. Broken Clouds 8000ft.
Becoming from till Wind variable 3kt. Visibility 10km or more. Few Clouds 3000ft.

Ham: TAF LGIO 131100Z 1312/1321 25010KT 9999 SCT030 SCT080 PROB30 TEMPO 1312/1315 6000 SHRA FEW020TCU SCT030 BKN080 BECMG 1315/1317 VRB03KT FEW030

Yanya için şu anki uydu ve yağmur görüntüleri, Yunanistan

  • Yağış:
  • <1 mm
  • 1-2 mm
  • 2-5 mm
  • >5 mm

Konum işaretleyici Yanya üzerine yerleştirilir. [Daha fazla]

Gerçek zamanlı uydu görüntüsü gündüz süresince görülür ışığı gece süresince kızılötesi ışınım ile birleştirir. Gece kızılötesi ışınım sıcaklık farklarını algılayabildiğinden dolayı görüntü karanlık değildir. Ancak düşük bulutları ve sisi yer sıcaklığından ayırmak zordur ve bu nedenle gece boyunca neredeyse görünmez olabilirler. Avrupa için Meteosat uydu görüntüleri gerçek zamanlı olarak her 5 dakikada bir güncellenir. GOES-16/GOES-17 (Kuzey ve Güney Amerika) ve Himawari (Asya) görüntüleri her 10 dakikada bir güncellenir.

Yağış radar ve uydudan tahmin edilir. Uydulardan gece yapılan yağış tahminleri gündüz yapılan tahminlere göre daha az kusursuzdur. Turuncu çarpılar şimşeklerin saptandığı yerleri gösterir (Avrupa üzeri).

Copyright 2021 EUMETSAT / meteoblue. nowcast tarafından sağlanan şimşek verileri.

Güncel hava durumu ve uyarılar

EUMETNET – MeteoAlarm

pictomap

Kaynak: HNMS

Bu web sitesi ve www.meteoalarm.eu web sitesi arasında zaman gecikmeleri olabilir, Ulusal Meteoroloji Servisi tarafından yayınlanan uyarı düzeyleri hakkında en güncel bilgiler için lütfen www.meteoalarm.eu sayfasını kullanın.